Location: Recife
(8.0585°S, 34.8848°W)
Time: 10:57:12
(UTC-03:00)

Transit 2A - Pass Details

Date: 16 April 2026
Orbit: 594 x 950 km, 66.7° (Epoch: 14 May)

Event Time Altitude Azimuth Distance (km) Brightness Sun altitude
Rises 21:01:25 0° 223° (SW) 3,456 - -55.9°
Reaches altitude 10° 21:04:17 10° 236° (WSW) 2,564 - -56.6°
Maximum altitude 21:09:03 25° 289° (WNW) 1,784 - -57.8°
Drops below altitude 10° 21:13:59 10° 342° (NNW) 2,652 - -59.0°
Sets 21:17:02 0° 355° (N) 3,601 - -59.8°
